Regional Weather Roundup
Issued by NWS

Home | Current Version | Previous Version | Text Only | Print | Product List | Glossary Off
Versions: 1 2 3 4 5 6 7 8 9 10 11 12 13 14 15 16 17 18 19 20 21 22 23 24 25 26 27 28 29 30 31 32 33 34 35 36 37 38 39 40 41 42 43 44 45 46 47 48 49 50

000
ASUS45 KCYS 201410
RWRWY

WYOMING REGIONAL WEATHER ROUNDUP
NATIONAL WEATHER SERVICE CHEYENNE WY
700 AM MST SAT DEC 20 2014

NOTE:  "FAIR" INDICATES FEW OR NO CLOUDS BELOW 12,000 FEET
WITH NO SIGNIFICANT WEATHER AND/OR OBSTRUCTIONS TO VISIBILITY.

WYZ001-201500-
YELLOWSTONE NATIONAL PARK

CITY           SKY/WX    TMP DP  RH WIND       PRES   REMARKS
LK YELLOWSTONE   N/A     24  21  88 CALM      30.01R
W YELLOWSTONE  NOT AVBL

$$
WYZ002>013-054>058-071-098>099-201500-
NORTHERN WYOMING

CITY           SKY/WX    TMP DP  RH WIND       PRES   REMARKS
JACKSON        MOCLDY    30  28  93 CALM      30.03S
CODY           FAIR      37  19  48 SW3       29.91R
GREYBULL       FAIR      10   7  87 SW3       29.97S
WORLAND        FAIR      10   6  84 S8        29.95F WCI  -2
SHERIDAN       FAIR      23  16  74 CALM      29.91S
BUFFALO        FAIR      33  19  56 S5        29.92R WCI  29
GILLETTE       MOCLDY    29  24  82 S6        29.92R WCI  23
HULETT           N/A    N/A N/A N/A MISG        N/A
NEWCASTLE      FAIR      27  23  86 CALM      29.95R

$$
WYZ014>020-022>026-101>103-201500-
CENTRAL WYOMING

CITY           SKY/WX    TMP DP  RH WIND       PRES   REMARKS
BIG PINEY      MOCLDY    19  17  92 W3        30.05S
PINEDALE       CLOUDY    19  19 100 W5        30.06R WCI  13
DUBOIS         NOT AVBL
LANDER         FAIR      19  13  77 CALM      29.94F
RIVERTON       FAIR       9   4  80 NE6       29.96S WCI  -1
CASPER         FAIR      31  23  72 SW20G28   29.98R WCI  19
DOUGLAS        FAIR      29  22  75 N10       29.96R WCI  20

$$
WYZ021-027>030-104>119-201500-
SOUTHERN WYOMING

CITY           SKY/WX    TMP DP  RH WIND       PRES   REMARKS
EVANSTON       CLOUDY    29  26  89 SW9       30.06S WCI  20
KEMMERER       CLOUDY    28  27  93 SW6       30.05S WCI  22
FORT BRIDGER   CLOUDY    31  28  87 W7        30.09R WCI  25
ROCK SPRINGS   CLOUDY    28  22  78 SW15      30.05F WCI  16
DIXON          CLOUDY    26  24  91 CALM      30.15R
RAWLINS        CLOUDY    27  21  78 SW23G31   30.04F WCI  12
SARATOGA       CLOUDY    27  21  80 SW3       30.07R
LARAMIE        MOCLDY    30  18  60 SW17G23   29.98F WCI  18
CHEYENNE       CLOUDY    36  17  46 SW14      29.96R WCI  27
TORRINGTON     FAIR     N/A N/A N/A W7        29.95R
PINE BLUFFS    CLOUDY    28  23  80 CALM      30.01R

$$


USA.gov is the U.S. government's official web portal to all federal, state and local government web resources and services.